Vigie, St. Lucia

1:45 PM AST on June 24, 2018 (GMT -0400)
George F.L. Charles

Weather History for TLPC - September, 2016

Change the Weather History Date:

Wednesday, September 28, 2016

  Actual Average Record
Temperature  
Mean Temperature 78 °F -  
Max Temperature 83 °F 84 °F 92 °F (2015)
Min Temperature 74 °F 78 °F 74 °F (2014)
Cooling Degree Days 14    
Growing Degree Days 28 (Base 50)    
Moisture  
Dew Point 77 °F    
Average Humidity 91    
Maximum Humidity 100    
Minimum Humidity 79    
Precipitation  
Precipitation 9.21 in - - ()
Sea Level Pressure  
Sea Level Pressure 29.82 in    
Wind  
Wind Speed 10 mph ()    
Max Wind Speed 22 mph    
Max Gust Speed 50 mph    
Visibility 4.7 miles    
Events Rain    
Averages and records for this station are not official NWS values.
T = Trace of Precipitation, MM = Missing Value Source: Averaged Metar Reports

Daily Weather History Graph

Daily Weather History Graph

Search for Another Location

Airport or City:

Astronomy

Sep. 28, 2016 Rise Set
Actual Time 5:53 AM AST 5:55 PM AST
Civil Twilight 5:32 AM AST 6:16 PM AST
Nautical Twilight 5:07 AM AST 6:41 PM AST
Astronomical Twilight 4:42 AM AST 7:06 PM AST
Moon 3:52 AM AST (9/28) 4:31 PM AST (9/28)
Length of Visible Light 12h 44m
Length of Day
12h 01m
Waning Crescent, 5% of the Moon is Illuminated
Sep 28
Waning Crescent
Sep 30
New
Oct 9
First Quarter
Oct 16
Full
Oct 22
Last Quarter

Hourly Weather History & Observations

Time (AST) Temp. Heat Index Dew Point Humidity Pressure Visibility Wind Dir Wind Speed Gust Speed Precip Events Conditions
12:00 AM 84.2 °F 96.1 °F 78.8 °F 84% 29.89 in 6.2 mi NE 9.2 mph 21.9 mph N/A   Mostly Cloudy
1:00 AM 78.8 °F - 77.0 °F 94% 29.86 in 3.7 mi East 11.5 mph - N/A Rain Rain Showers
2:00 AM 81 °F - 76 °F 82% 29.86 in 9 mi ENE 9.2 mph - - Rain Light Rain Showers
2:00 AM 80.6 °F 87.1 °F 77.0 °F 89% 29.86 in 6.2 mi ENE 9.2 mph - N/A   Scattered Clouds
3:00 AM 84.2 °F 94.1 °F 77.0 °F 79% 29.83 in 6.2 mi ENE 11.5 mph - N/A   Mostly Cloudy
4:00 AM 80.6 °F 88.1 °F 78.8 °F 94% 29.83 in 2.5 mi ENE 10.4 mph - N/A Rain Rain Showers
5:00 AM 82 °F - 78 °F 84% 29.84 in 6 mi ENE 10.4 mph - -   Mostly Cloudy
5:00 AM 82.4 °F 92.4 °F 78.8 °F 89% 29.83 in 5.6 mi ENE 10.4 mph 23.0 mph N/A   Scattered Clouds
6:00 AM 80.6 °F 87.1 °F 77.0 °F 89% 29.83 in 6.2 mi ENE 11.5 mph 25.3 mph N/A   Mostly Cloudy
7:00 AM 82.4 °F 90.9 °F 77.0 °F 84% 29.83 in 3.1 mi ENE 10.4 mph 26.5 mph N/A Rain Rain Showers
8:00 AM 81 °F - 78 °F 86% 29.85 in 15 mi ENE 9.2 mph - - Rain Light Rain Showers
8:00 AM 80.6 °F 87.1 °F 77.0 °F 89% 29.83 in 6.2 mi ENE 9.2 mph - N/A   Mostly Cloudy
10:00 AM 80.6 °F 87.1 °F 77.0 °F 89% 29.83 in 6.2 mi ENE 8.1 mph - N/A   Mostly Cloudy
11:00 AM 82 °F - 80 °F 93% 29.81 in 3 mi ENE 3.5 mph - - Rain Light Rain
11:00 AM 82.4 °F 94.0 °F 80.6 °F 94% 29.80 in 3.1 mi ENE 3.5 mph - N/A Rain Rain
12:00 PM 82.4 °F 90.9 °F 77.0 °F 84% - 4.3 mi East 6.9 mph 18.4 mph N/A   Mostly Cloudy
1:00 PM 78.8 °F - 78.8 °F 100% 29.77 in 6.2 mi ESE 11.5 mph - N/A   Mostly Cloudy
2:00 PM 79 °F - 77 °F 90% 29.75 in 7 mi East 5.8 mph - - Rain Light Rain Showers
2:00 PM 78.8 °F - 77.0 °F 94% 29.74 in 6.2 mi East 5.8 mph - N/A Rain Rain Showers
3:00 PM 77.0 °F - 75.2 °F 94% 29.71 in 1.9 mi ESE 11.5 mph - N/A Rain Rain Showers
4:00 PM 77.0 °F - 75.2 °F 94% 29.74 in 6.2 mi ESE 3.5 mph - N/A Rain Rain
5:00 PM 78 °F - 76 °F 90% 29.75 in 4 mi SE 12.7 mph - - Rain Light Rain Showers
5:00 PM 78.8 °F - 75.2 °F 89% 29.74 in 4.3 mi SE 12.7 mph 27.6 mph N/A Rain Rain Showers
6:00 PM 78.8 °F - 75.2 °F 89% 29.74 in 5.0 mi SE 16.1 mph 31.1 mph N/A Rain Heavy Rain
7:00 PM 75.2 °F - 75.2 °F 100% 29.80 in 1.2 mi SE 21.9 mph 43.7 mph N/A Rain Heavy Rain Showers
8:00 PM 74 °F - 74 °F 100% 29.83 in 1 mi SE 21.9 mph - - Rain Heavy Rain Showers
8:00 PM 75.2 °F - 75.2 °F 100% 29.80 in 1.2 mi SE 21.9 mph 49.5 mph N/A Rain Heavy Rain Showers
9:00 PM 77.0 °F - 75.2 °F 94% 29.86 in 1.9 mi SE 18.4 mph 38.0 mph N/A Rain Rain Showers
10:00 PM 77.0 °F - 75.2 °F 94% 29.89 in 3.1 mi SE 21.9 mph 44.9 mph N/A Rain Rain Showers
11:00 PM 76 °F - 74 °F 93% 29.92 in 2 mi ESE 20.7 mph - - Rain Heavy Rain Showers
11:00 PM 75.2 °F - 75.2 °F 100% 29.92 in 1.9 mi ESE 20.7 mph 36.8 mph N/A Rain Heavy Rain Showers